Regional Weather Roundup
Issued by NWS

Home | Current Version | Previous Version | Text Only | Print | Product List | Glossary Off
Versions: 1 2 3 4 5 6 7 8 9 10 11 12 13 14 15 16 17 18 19 20 21 22 23 24 25 26 27 28 29 30 31 32 33 34 35 36 37 38 39 40 41 42 43 44 45 46 47 48 49 50

000
ASUS43 KLMK 010102
RWRKY
KENTUCKY REGIONAL WEATHER ROUNDUP
NATIONAL WEATHER SERVICE LOUISVILLE KY
900 PM EDT TUE SEP 30 2014

NOTE "FAIR" INDICATES FEW OR NO CLOUDS BELOW 12,000 FEET
WITH NO SIGNIFICANT WEATHER AND/OR OBSTRUCTIONS TO VISIBILITY.

KYZ001>023-026-027-061>063-070>075-010200-
WESTERN AND SOUTH CENTRAL KENTUCKY

CITY           SKY/WX    TMP DP  RH WIND       PRES   REMARKS
PADUCAH        CLEAR     66  58  75 CALM      29.88R
HENDERSON      NOT AVBL
OWENSBORO      CLEAR     75  60  59 NE5       29.90S
HOPKINSVILLE   PTCLDY    74  53  47 NE5       29.90R
BOWLING GREEN  CLEAR     76  54  46 CALM      29.91R
GLASGOW        CLEAR     65  55  70 CALM      29.91S
$$

KYZ024-025-028>034-038-045-046-053-010200-
NORTH CENTRAL KENTUCKY

CITY           SKY/WX    TMP DP  RH WIND       PRES   REMARKS
LOUISVILLE/SDF PTCLDY    74  62  66 N9        29.91R
LOUISVILLE/LOU CLEAR     74  62  66 N3        29.92R
FORT KNOX      CLEAR     66  59  77 NW3       29.91R
$$

KYZ035>037-039>044-047>052-055>060-089>105-010200-
NORTHEAST KENTUCKY

CITY           SKY/WX    TMP DP  RH WIND       PRES   REMARKS
LEXINGTON      CLEAR     70  59  68 CALM      29.92R
COVINGTON      MOCLDY    64  55  72 NE12      29.95R
FRANKFORT      CLEAR     70  58  65 N3        29.91R
$$

KYZ054-064>069-076>088-106>120-010200-
SOUTHEAST KENTUCKY

CITY           SKY/WX    TMP DP  RH WIND       PRES   REMARKS
JACKSON        PTCLDY    69  55  60 CALM      29.93S
LONDON         CLEAR     66  59  78 CALM      29.94R
SOMERSET       CLEAR     64  59  82 CALM      29.94R
MIDDLESBORO    CLEAR     63  57  80 CALM      29.96R
MONTICELLO     CLEAR     59  56  89 CALM      29.95R
$$



USA.gov is the U.S. government's official web portal to all federal, state and local government web resources and services.